Flag Weather past 2 weeks in Aspen, Colorado, U.S.A.

Now
24 °F

Passing clouds.


Feels Like: 16 °F
Forecast: 15 / 30 °F
Wind: 7 mph from Northeast

Location: Aspen-Pitkin County Airport

Current Time: Nov 23, 2014 at 8:07:01 AM

Latest Report: Nov 23, 2014 at 6:53 AM


Visibility: 6 mi

Pressure: 29.76 "Hg

Humidity: 91%

Dew point: 22 °F

Location of AspenLocation

Historic Weather in Aspen — Graph

°F

Aspen temperature yesterday

Maximum temperature yesterday: 44 °F (at 12:53 PM)
Minimum temperature yesterday: 16 °F (at 3:53 AM)
Average temperature yesterday: 30 °F

Past Weeks' High & Low Weather Summary

 TemperatureHumidityPressure
High59 °F (Nov 9, 2:53 PM)100% (Nov 15, 2:02 AM)30.53 "Hg (Nov 15, 2:02 AM)
Low2 °F (Nov 16, 6:53 AM)16% (Nov 8, 12:53 PM)29.43 "Hg (Nov 10, 10:53 AM)
Average25 °F69%30.04 "Hg
* Reported Nov 8 6:53 AM — Nov 23 6:53 AM, Aspen, Weather by CustomWeather, © 2014

Note: Actual official high and low records may vary slightly from our data, if they occured in-between our weather recording intervals... More about our weather records

Advertising

Aspen weather history for previous 24 hours

 ConditionsComfort  
Time TempWeatherWind HumidityBarometerVisibility
6:53 AM
Nov 23
24 °FPassing clouds.7 mph91%29.76 "Hg6 mi
5:53 AM25 °FLight snow. Ice fog.7 mph85%29.72 "Hg1 mi
5:00 AM26 °FLight snow. Ice fog.7 mph84%29.77 "Hg2 mi
3:59 AM28 °FLight snow. Ice fog.6 mph89%29.73 "Hg2 mi
2:53 AM29 °FMostly cloudy.No wind85%29.62 "Hg10 mi
1:53 AM29 °FLight snow. Ice fog.16 mph89%29.62 "Hg1 mi
12:53 AM31 °FLight snow. Ice fog.3 mph92%29.57 "Hg2 mi
11:53 PM
Nov 22
31 °FMostly cloudy.No wind96%29.58 "Hg10 mi
10:53 PM31 °FMostly cloudy.3 mph92%29.60 "Hg10 mi
9:53 PM32 °FLight snow. Ice fog.5 mph92%29.66 "Hg5 mi
8:53 PM31 °FLight snow. Mostly cloudy.5 mph92%29.67 "Hg8 mi
7:53 PM32 °FLight snow. Overcast.No wind92%29.74 "Hg9 mi
6:53 PM32 °FLight snow. Ice fog.3 mph92%29.80 "Hg2 mi
5:53 PM34 °FOvercast.3 mph79%29.79 "Hg6 mi
4:53 PM36 °FLight rain. Mostly cloudy.9 mph64%29.80 "Hg3 mi
3:53 PM39 °FLight rain. Mostly cloudy.10 mph53%29.82 "Hg5 mi
2:53 PM42 °FBroken clouds.No wind41%29.75 "Hg10 mi
1:53 PM43 °FPartly sunny.7 mph37%29.78 "Hg10 mi
12:53 PM44 °FSunny.7 mph34%29.80 "Hg10 mi
11:53 AM42 °FSunny.3 mph35%29.83 "Hg10 mi
10:53 AM40 °FSunny.3 mph33%29.88 "Hg10 mi
9:53 AM31 °FSunny.8 mph57%29.98 "Hg10 mi
8:53 AM26 °FSunny.7 mph60%30.05 "Hg10 mi
Weather by CustomWeather, © 2014

See weather overviewHow to use our weather pages